Location: Unspecified
(0.0000°N, 0.0000°E)
Time: 01:39:17
(UTC+00:00)

Tiros 1 - All Passes

Search period start: 26 May 2019 00:00
Search period end: 05 June 2019 00:00
Orbit: 630 x 664 km, 48.4° (Epoch: 25 May)

Date Brightness Start Highest point End Pass type
(mag) Time Alt. Az. Time Alt. Az. Time Alt. Az.
26 May - 06:15:08 10° SSW 06:19:45 73° SE 06:24:20 10° NE daylight
26 May - 16:49:13 10° NNE 16:50:35 11° NE 16:51:56 10° ENE daylight
26 May - 18:27:57 10° NW 18:32:40 60° SW 18:37:26 10° SSE visible
27 May - 05:00:27 10° S 05:03:45 19° SE 05:07:01 10° E visible
27 May - 06:41:40 10° WSW 06:45:45 31° NW 06:49:51 10° NNE daylight
27 May - 17:12:19 10° NNW 17:16:41 35° NE 17:21:03 10° ESE daylight
27 May - 18:55:22 10° W 18:58:44 19° SW 19:02:06 10° S visible
28 May - 05:25:12 10° SSW 05:29:47 64° SE 05:34:21 10° NE visible
28 May - 17:37:56 10° NW 17:42:41 69° SW 17:47:29 10° SSE daylight
29 May - 04:10:45 10° S 04:13:45 17° SE 04:16:45 10° E visible
29 May - 05:51:34 10° WSW 05:55:47 35° NW 06:00:00 10° NNE daylight
29 May - 16:22:28 10° N 16:26:41 31° NE 16:30:55 10° ESE daylight
29 May - 18:05:08 10° W 18:08:44 21° SW 18:12:22 10° S daylight
30 May - 04:35:16 10° SSW 04:39:49 56° SE 04:44:20 10° NE visible
30 May - 06:20:41 10° WNW 06:21:52 11° NW 06:23:04 10° NW daylight
30 May - 16:47:56 10° NW 16:52:41 78° SW 16:57:31 10° SE daylight
31 May - 03:21:05 10° SSE 03:23:46 15° SE 03:26:26 10° E visible
31 May - 05:01:28 10° WSW 05:05:49 40° NW 05:10:09 10° NNE visible
31 May - 15:32:39 10° N 15:36:42 27° NE 15:40:46 10° ESE daylight
31 May - 17:14:55 10° WNW 17:18:44 24° SW 17:22:35 10° S daylight
01 Jun - 03:45:21 10° SSW 03:49:51 49° SE 03:54:18 10° NE visible
01 Jun - 05:29:56 10° WNW 05:31:53 12° NW 05:33:51 10° NNW visible
01 Jun - 15:57:56 10° NW 16:02:42 88° SW 16:07:32 10° SE daylight
02 Jun - 02:31:31 10° SSE 02:33:47 13° SE 02:36:02 10° E visible
02 Jun - 04:11:24 10° SW 04:15:51 46° NW 04:20:16 10° NNE visible
02 Jun - 14:42:52 10° N 14:46:43 24° NE 14:50:35 10° ESE daylight
02 Jun - 16:24:45 10° WNW 16:28:45 26° SW 16:32:46 10° S daylight
03 Jun - 02:55:27 10° SSW 02:59:53 43° SE 03:04:16 10° ENE visible
03 Jun - 04:39:26 10° W 04:41:54 14° NW 04:44:21 10° NNW visible
03 Jun - 15:07:58 10° NW 15:12:43 82° NE 15:17:32 10° SE daylight
04 Jun - 01:42:04 10° SSE 01:43:47 12° SE 01:45:30 10° ESE night (unlit)
04 Jun - 03:21:21 10° SW 03:25:53 53° NW 03:30:23 10° NNE visible
04 Jun - 13:53:05 10° N 13:56:43 22° NE 14:00:22 10° E daylight
04 Jun - 15:34:36 10° WNW 15:38:45 30° SW 15:42:56 10° S daylight
